Regional Weather Roundup
Issued by NWS

Home | Current Version | Previous Version | Text Only | Print | Product List | Glossary On
Versions: 1 2 3 4 5 6 7 8 9 10 11 12 13 14 15 16 17 18 19 20 21 22 23 24 25 26 27 28 29 30 31 32 33 34 35 36 37 38 39 40 41 42 43 44 45 46 47 48 49 50
000
ASUS43 KLSX 251010
RWRMO

WEATHER SUMMARY FOR MISSOURI
NATIONAL WEATHER SERVICE SPRINGFIELD MO
500 AM CDT SAT MAR 25 2017

NOTE: "FAIR" INDICATES FEW OR NO CLOUDS BELOW 12,000 FEET WITH NO
       SIGNIFICANT WEATHER AND/OR OBSTRUCTIONS TO VISIBILITY.
       CURRENT SKY AND/OR WEATHER CONDITIONS ARE NOT AVAILABLE FOR
       CHILLICOTHE AND FARMINGTON.

MOZ001>031-035>038-043-044-053-054-251100-
...NORTHERN AND WESTERN MISSOURI...

CITY           SKY/WX    TMP DP  RH WIND       PRES   REMARKS
KANSAS CTY INT CLOUDY    55  54  96 E8        29.76R
KANSAS C DTWN  CLOUDY    57  51  80 E7        29.75R
LEE`S SUMMIT   MOCLDY    52  49  89 E8        29.76S
ST JOSEPH      LGT RAIN  49  49 100 N12       29.80R FOG
CHILLICOTHE      N/A     56  54  93 NE6       29.81R
KIRKSVILLE     CLOUDY    56  55  97 NE10      29.82R

$$
MOZ066>068-077>081-088>096-101>105-251100-
...SOUTHWEST MISSOURI...

CITY           SKY/WX    TMP DP  RH WIND       PRES   REMARKS
SPRINGFIELD    CLOUDY    53  50  89 SE13      29.74F
JOPLIN         LGT RAIN  53  52  96 N5        29.73S
BRANSON        CLOUDY    50  50 100 SE14      29.77S FOG

$$
MOZ032>034-039>042-045>050-055>058-069>072-251100-
...CENTRAL MISSOURI...

CITY           SKY/WX    TMP DP  RH WIND       PRES   REMARKS
COLUMBIA       CLOUDY    55  55 100 S5        29.80R
JEFFERSON CITY CLOUDY    58  52  80 S6        29.79R
ROLLA          CLOUDY    53  51  93 S10       29.78S
SEDALIA        CLOUDY    52  49  89 SE7       29.78F
WHITEMAN AFB   PTCLDY    51  51 100 E3        29.75F
WARRENSBURG    PTCLDY    52  45  76 E6        29.76F
OSAGE BEACH    CLOUDY   N/A N/A N/A S7        29.79F

$$
MOZ051-052-059>065-251100-
...EAST CENTRAL MISSOURI...

CITY           SKY/WX    TMP DP  RH WIND       PRES   REMARKS
ST LOUIS INTL  CLOUDY    59  57  93 SE14      29.80F
SPIRIT OF STL  CLOUDY    59  57  93 SE6       29.80F
ST CHARLES     CLOUDY    58  58 100 E16       29.77F

$$
MOZ072>076-082>087-097>100-106>115-251100-
...SOUTH CENTRAL AND SOUTHEAST MISSOURI...

CITY           SKY/WX    TMP DP  RH WIND       PRES   REMARKS
CAPE GIRARDEAU LGT RAIN  55  52  89 SE10      29.93S
FARMINGTON     CLOUDY    53  52  96 S9        29.85F
POPLAR BLUFF   RAIN      55  54  96 SE12      29.93R
WEST PLAINS    LGT RAIN  53  52  96 SE10      29.84F

$$




USA.gov is the U.S. government's official web portal to all federal, state and local government web resources and services.